User: anonymous   Login
Location: Oshawa
(43.9000°N, 78.8670°W)
Time: 04:49:04
(UTC-04:00)
Language:

Cosmos 2333 Rocket - Orbit

View from above orbital plane
View from above orbital plane
View from above satellite
View from above satellite

Ground track
Ground track

The orbit data is extracted from the following two-line orbital elements,

1 24298U 96051B   15242.50226242 -.00000178  00000-0 -70401-4 0  9997
2 24298 070.8415 006.4418 0013108 078.3290 281.9301 14.12398615979095
Epoch (UTC): 30 August 2015 12:03:15
Eccentricity: 0.0013108
inclination: 70.8415°
perigee height: 842 km
apogee height: 860 km
right ascension of ascending node: 6.4418°
argument of perigee: 78.3290°
revolutions per day: 14.12398615
mean anomaly at epoch: 281.9301°
orbit number at epoch: 97909

The dashed part of the orbit path shows where the satellite is in the earth's shadow,  

DLR